Location: Karlovy Vary
(50.2170°N, 12.9000°E)
Time: 20:38:01
(UTC+02:00)

ISS - Visible Passes

Search period start: 16 July 2018 00:00
Search period end: 26 July 2018 00:00
Orbit: 402 x 408 km, 51.6° (Epoch: 17 July)

Date Brightness Start Highest point End Pass type
(mag) Time Alt. Az. Time Alt. Az. Time Alt. Az.
16 Jul -2.6 00:59:18 30° E 00:59:18 30° E 01:01:19 10° E visible
16 Jul -3.6 02:31:55 15° W 02:34:35 71° N 02:37:53 10° ENE visible
16 Jul -3.7 04:07:55 10° WNW 04:11:13 80° NNE 04:14:31 10° E visible
17 Jul -1.5 00:08:35 13° E 00:08:35 13° E 00:09:06 10° E visible
17 Jul -3.9 01:41:12 35° W 01:42:28 85° NNW 01:45:47 10° ENE visible
17 Jul -3.5 03:15:49 10° WNW 03:19:06 69° N 03:22:24 10° E visible
18 Jul -4.0 00:50:12 71° SSW 00:50:23 75° SSE 00:53:40 10° ENE visible
18 Jul -3.5 02:23:41 10° W 02:26:58 65° N 02:30:15 10° E visible
18 Jul -3.9 04:00:14 10° WNW 04:03:32 72° SSW 04:06:49 10° ESE visible
18 Jul -3.8 23:58:10 51° SSE 23:58:19 52° SSE 00:01:33 10° ENE visible
19 Jul -3.5 01:31:31 10° W 01:34:49 68° N 01:38:06 10° ENE visible
19 Jul -3.8 03:08:07 10° WNW 03:11:26 86° NNE 03:14:44 10° ESE visible
19 Jul -3.3 23:03:17 10° SW 23:06:18 35° SSE 23:09:20 10° E visible
20 Jul -3.8 00:39:22 10° W 00:42:39 79° N 00:45:58 10° ENE visible
20 Jul -3.6 02:16:00 10° WNW 02:19:17 72° N 02:22:35 10° E visible
20 Jul -3.5 03:52:34 10° W 03:55:42 43° SSW 03:58:51 10° SE visible
20 Jul -2.6 22:11:42 10° SSW 22:14:20 23° SE 22:16:59 10° E visible
20 Jul -4.0 23:47:14 10° WSW 23:50:31 83° SSE 23:53:48 10° ENE visible
21 Jul -3.5 01:23:50 10° W 01:27:07 66° N 01:30:24 10° E visible
21 Jul -3.9 03:00:23 10° WNW 03:03:39 64° SSW 03:06:55 10° ESE visible
21 Jul -2.1 04:37:36 10° W 04:39:40 16° SW 04:41:44 10° S visible
21 Jul -3.9 22:55:10 10° WSW 22:58:24 60° SSE 23:01:39 10° ENE visible
22 Jul -3.5 00:31:38 10° W 00:34:55 67° N 00:38:13 10° E visible
22 Jul -4.0 02:08:13 10° WNW 02:11:32 86° SSW 02:14:50 10° ESE visible
22 Jul -2.7 03:45:00 10° W 03:47:45 24° SW 03:50:28 10° SSE visible
22 Jul -3.4 22:03:14 10° SW 22:06:19 40° SSE 22:09:27 10° E visible
22 Jul -3.7 23:39:26 10° W 23:42:44 74° N 23:46:01 10° ENE visible
23 Jul -3.7 01:16:04 10° WNW 01:19:21 76° N 01:20:45 32° E visible
23 Jul -1.6 02:52:39 10° W 02:53:15 14° W 02:53:15 14° W visible
23 Jul -3.9 22:47:15 10° WSW 22:50:32 89° N 22:53:50 10° ENE visible
24 Jul -3.5 00:23:53 10° W 00:27:09 67° N 00:29:01 23° E visible
24 Jul -1.9 02:00:25 10° WNW 02:01:36 20° W 02:01:36 20° W visible
24 Jul -3.9 21:55:07 10° WSW 21:58:22 68° SSE 22:01:39 10° ENE visible
24 Jul -3.5 23:31:39 10° W 23:34:55 66° N 23:38:00 11° E visible
25 Jul -3.1 01:08:13 10° WNW 01:10:37 45° W 01:10:37 45° W visible
25 Jul -3.6 22:39:25 10° W 22:42:41 70° N 22:45:59 10° ENE visible
